Location: Zagreb
(45.8000°N, 16.0000°E)
Time: 20:29:33
(UTC+01:00)

DX 1 - Pass Details

Date: 08 November 2020
Orbit: 619 x 630 km, 98.5° (Epoch: 01 December)

Event Time Altitude Azimuth Distance (km) Brightness Sun altitude
Exits shadow 18:57:22 22° 358° (N) 1,365 ? -25.4°
Maximum altitude 18:59:57 54° 289° (WNW) 764 ? -25.9°
Drops below altitude 10° 19:04:11 10° 212° (SSW) 1,997 ? -26.6°
Sets 19:06:24 0° 208° (SSW) 2,901 ? -27.0°
